Location: Albany
(35.0170°S, 117.8920°E)
Time: 20:53:41
(UTC+08:00)

A-11 Canister half - Pass Details

Date: 30 January 2021
Orbit: 1525 x 1684 km, 47.3° (Epoch: 03 March)

Event Time Altitude Azimuth Distance (km) Brightness Sun altitude
Rises 07:51:09 0° 236° (SW) 4,886 11.2 28.1°
Reaches altitude 10° 07:54:21 10° 238° (WSW) 3,876 10.8 28.8°
Maximum altitude 08:04:07 71° 318° (NW) 1,669 9.5 30.8°
Drops below altitude 10° 08:13:31 10° 40° (NE) 3,729 11.7 32.7°
Sets 08:16:32 0° 42° (NE) 4,692 12.1 33.3°
